GORIZONT 28 [-]

Last updated on Oct. 25, 2020, 5:56 a.m. UTC

1 22880U 93069A   20298.26260865 -.00000202  00000-0  00000-0 0  9998
2 22880  14.8822   4.0214 0031799 112.5694 294.5715  0.99649947 98585
UTC
Height (km)
Latitude
Longitude
Inclination
Orbital Period
UTC large
Height (km)
Speed (km/s)
/
Latitude / Longitude
Inclination (degrees)
Orbital Period (minutes)
Azimuth
Elevation
Range (km)
Doppler Factor
iOS Compass Heading
iOS Angle

Next 30 passes for location: Hong Kong

Rise time Rise Azimuth (degrees) Set time Set Azimuth (degrees) Duration Max altitude (degrees)

No matching passes for this satellites